Home > Weather > Oldenburg > Past weeks

Flag for Germany Past Weather in Oldenburg, Lower Saxony, Germany — Yesterday and Last 2 Weeks

Now
68 °F

Partly sunny.


Feels Like: 68 °F
Forecast: 51 / 63 °F
Wind: 15 mph from Southwest

Location: Bremen Airport

Current Time: Jun 26, 2016 at 2:01:22 PM

Latest Report: Jun 26, 2016 at 1:20 PM


Visibility: N/A

Pressure: 30.01 "Hg

Humidity: 60%

Dew Point: 54 °F

Location of OldenburgLocation

Past Weather in Oldenburg — Graph

°F

Oldenburg Temperature Yesterday

Maximum temperature yesterday: 66 °F (at 12:20 PM)
Minimum temperature yesterday: 55 °F (at 9:50 PM)
Average temperature yesterday: 62 °F

High & Low Weather Summary for the Past Weeks

 TemperatureHumidityPressure
High88 °F (Jun 23, 2:50 PM)100% (Jun 13, 3:50 AM)30.21 "Hg (Jun 13, 3:50 AM)
Low46 °F (Jun 20, 1:50 AM)40% (Jun 11, 2:50 PM)29.45 "Hg (Jun 14, 12:50 PM)
Average63 °F81%29.86 "Hg
* Reported Jun 11 1:20 PM — Jun 26 1:20 PM, Oldenburg, Weather by CustomWeather, © 2016

Note: Actual official high and low records may vary slightly from our data, if they occured in-between our weather recording intervals... More about our weather records

Advertising

Oldenburg Weather History for the Previous 24 Hours

Scroll right to see more
 ConditionsComfort  
Time TempWeatherWind HumidityBarometerVisibility
1:20 PM
Sun, Jun 26
68 °FPartly sunny.15 mph60%30.01 "HgN/A
12:50 PM63 °FPartly sunny.13 mph68%30.01 "HgN/A
12:20 PM64 °FPartly sunny.12 mph68%30.01 "HgN/A
11:50 AM64 °FPartly sunny.14 mph64%30.01 "HgN/A
11:20 AM66 °FPartly sunny.14 mph68%30.01 "HgN/A
10:50 AM64 °FPartly sunny.14 mph73%30.01 "HgN/A
10:20 AM61 °FPartly sunny.14 mph77%30.01 "HgN/A
9:50 AM61 °FScattered clouds.13 mph77%29.98 "HgN/A
9:20 AM61 °FPartly sunny.14 mph83%29.98 "HgN/A
8:50 AM61 °FPartly sunny.13 mph83%29.98 "HgN/A
8:20 AM59 °FPartly sunny.12 mph88%29.98 "HgN/A
7:50 AM57 °FPartly sunny.12 mph94%29.98 "Hg5 mi
7:20 AM57 °FPartly sunny.8 mph94%29.98 "Hg4 mi
6:50 AM57 °FScattered clouds.7 mph94%29.98 "Hg4 mi
6:20 AM57 °FFog.6 mph94%29.98 "Hg3 mi
5:50 AM57 °FFog.5 mph94%29.95 "Hg2 mi
5:20 AM55 °FFog.7 mph100%29.95 "Hg2 mi
4:50 AM55 °FPassing clouds.9 mph100%29.95 "Hg4 mi
4:20 AM55 °FPassing clouds.6 mph94%29.95 "Hg5 mi
3:50 AM54 °FPassing clouds.3 mph100%29.95 "HgN/A
3:20 AM54 °FClear.2 mph94%29.95 "Hg10 mi
2:50 AM54 °FClear.5 mph94%29.95 "Hg10 mi
2:20 AM55 °FPassing clouds.7 mph94%29.95 "HgN/A
1:50 AM55 °FPassing clouds.9 mph100%29.95 "HgN/A
1:20 AM55 °FPassing clouds.10 mph94%29.95 "HgN/A
12:50 AM55 °FPassing clouds.10 mph100%29.95 "HgN/A
12:20 AM55 °FPassing clouds.10 mph100%29.95 "HgN/A
11:50 PM
Sat, Jun 25
55 °FPassing clouds.13 mph100%29.95 "HgN/A
11:20 PM55 °FPassing clouds.13 mph100%29.95 "Hg5 mi
10:50 PM55 °FDrizzle. Broken clouds.12 mph100%29.92 "Hg5 mi
10:20 PM55 °FDrizzle. Broken clouds.12 mph100%29.89 "HgN/A
9:50 PM55 °FDrizzle. Partly sunny.15 mph100%29.92 "Hg3 mi
9:20 PM57 °FDrizzle. Fog.16 mph94%29.89 "Hg2 mi
8:50 PM57 °FDrizzle. Fog.18 mph100%29.89 "Hg2 mi
8:20 PM59 °FLight rain. Fog.17 mph94%29.89 "Hg2 mi
7:50 PM59 °FLight rain. Fog.16 mph100%29.89 "Hg2 mi
7:20 PM61 °FLight rain. Fog.16 mph94%29.89 "Hg2 mi
6:50 PM61 °FRain. Fog.13 mph100%29.86 "Hg2 mi
6:20 PM63 °FLight rain. Low clouds.10 mph94%29.86 "Hg4 mi
5:50 PM63 °FLight rain. Low clouds.8 mph100%29.86 "Hg4 mi
5:20 PM63 °FLight rain. Fog.7 mph94%29.86 "Hg3 mi
4:50 PM63 °FLight rain. Fog.8 mph94%29.89 "Hg3 mi
4:20 PM63 °FLow clouds.9 mph94%29.89 "Hg5 mi
3:50 PM63 °FLow clouds.8 mph94%29.89 "Hg5 mi
3:20 PM63 °FLight rain. Partly sunny.9 mph94%29.89 "Hg5 mi
2:50 PM64 °FLight rain. Partly sunny.9 mph94%29.89 "Hg6 mi
2:20 PM64 °FLight rain. Partly sunny.10 mph88%29.89 "HgN/A
Weather by CustomWeather, © 2016

See weather overviewHow to use our weather pages